Weather Roundup
Issued by NWS

Home | Current Version | Previous Version | Text Only | Print | Product List | Glossary On
Versions: 1 2 3 4 5 6 7 8 9 10 11 12 13 14 15 16 17 18 19 20 21 22 23 24 25 26 27 28 29 30 31 32 33 34 35 36 37 38 39 40 41 42 43 44 45 46 47 48 49 50
000
NZUS93 KARX 050810
HRRWXR

CURRENT HOURLY OBSERVATIONS ACROSS
MUCH OF THE UPPER MISSISSIPPI VALLEY
NATIONAL WEATHER SERVICE LA CROSSE WI
200 AM CST THU MAR 05 2015


...SOUTHEAST MINNESOTA...


CITY           SKY/WX    TMP DP  RH WIND       PRES   REMARKS
ROCHESTER      CLEAR     -8 -15  71 NW9       30.39S WCI -25
ROCHESTER/MAYO FAIR      -3  -9  72 W7        30.41S WCI -16
WINONA         CLEAR      0  -8  71 NW3       30.46F
AUSTIN         CLEAR     -6 -11  77 NW3       30.41S
ALBERT LEA     CLEAR     -6  -9  84 NW5       30.41S WCI -17
DODGE CENTER   PTCLDY    -6 -11  77 W6        30.39R WCI -18
PRESTON        CLEAR     -8 -14  74 NW8       30.39S WCI -24
OWATONNA       CLEAR     -8 -11  84 CALM      30.43R
FARIBAULT      CLEAR     -6 -11  77 W5        30.43R WCI -17
$$

...ELSEWHERE IN MINNESOTA...


CITY           SKY/WX    TMP DP  RH WIND       PRES   REMARKS
MINNEAPOLIS    CLEAR     -4 -12  68 NW7       30.45R WCI -18
INTNL FALLS    CLEAR    -21 -27  73 CALM      30.32R
DULUTH         CLEAR    -11 -17  75 W8        30.32R WCI -28
RED WING       CLEAR     -9 -17  70 CALM      30.45R
REDWOOD FALLS  CLEAR     -6 -13  71 NW9       30.45S WCI -23
MANKATO        CLEAR     -2  -9  71 NW5       30.44R WCI -12
FAIRMONT       CLEAR     -4 -11  71 NW7       30.42R WCI -18
$$

...SOUTHWEST WISCONSIN...


CITY           SKY/WX    TMP DP  RH WIND       PRES   REMARKS
LA CROSSE      CLEAR      0 -10  63 NW6       30.45R WCI -12
PRAIRIE DU CHI CLEAR      1  -9  62 NW8       30.44S WCI -12
BOSCOBEL       CLEAR     -2  -9  72 CALM      30.43R
LONE ROCK      CLEAR      1  -8  66 W3        30.41R
PLATTEVILLE    PTCLDY     1  -6  71 W3        30.37S
FORT MC COY    CLEAR     -7 -13  76 CALM      30.42S
CAMP DOUGLAS   CLEAR     -6 -11  81 W5        30.39S WCI -17
VIROQUA        FAIR      -2  -8  73 NW3       30.35F
WIS DELLS      CLEAR      0 -11  59 CALM      30.38R
$$

...ELSEWHERE IN WISCONSIN...


CITY           SKY/WX    TMP DP  RH WIND       PRES   REMARKS
MILWAUKEE      MOCLDY     8  -9  45 NW9       30.36F WCI  -5
MADISON        PTCLDY     3  -8  60 NW5       30.38R WCI  -6
GREEN BAY      CLEAR     -4 -12  68 NW6       30.37F WCI -16
EAU CLAIRE     CLEAR     -6 -16  61 W3        30.41R
BLACK RVR FLS  FAIR     -11 -17  74 CALM      30.41S
MEDFORD        CLEAR     -9 -16  70 W6        30.31R WCI -23
WAUSAU         CLEAR     -6 -14  68 NW3       30.33R
WIS RAPIDS     CLEAR     -6 -15  65 NW3       30.38F
MARSHFIELD     CLEAR     -5 -14  65 W7        30.35R WCI -19
RICE LAKE      CLEAR    -13 -20  71 CALM      30.40R
$$

...NORTHEAST IOWA...


CITY           SKY/WX    TMP DP  RH WIND       PRES   REMARKS
DECORAH        CLEAR     -4 -11  71 NW5       30.39F WCI -15
MASON CITY     CLEAR     -7 -12  79 NW9       30.44R WCI -24
CHARLES CITY   CLEAR     -6 -13  71 NW9       30.43R WCI -22
OELWEIN        CLEAR     -9 -15  77 NW9       30.42R WCI -27
$$

...ELSEWHERE IN IOWA...


CITY           SKY/WX    TMP DP  RH WIND       PRES   REMARKS
DES MOINES     PTCLDY     7  -2  66 N8        30.47R WCI  -6
IOWA CITY      CLEAR      6  -4  63 N10       30.46R WCI  -9
FORT DODGE     CLEAR      0  -9  65 CALM      30.46R
$$

...NORTHERN ILLINOIS...


CITY           SKY/WX    TMP DP  RH WIND       PRES   REMARKS
CHICAGO-OHARE  MOCLDY     8  -5  55 N12       30.35F WCI  -7
CHICAGO-MIDWAY MOCLDY    13  -2  51 N14       30.36S WCI  -2
MOLINE         PTCLDY     9  -2  61 N10       30.43R WCI  -5
ROCKFORD       MOCLDY     6  -5  60 NW8       30.39F WCI  -7
PEORIA         CLOUDY    13   0  56 N8        30.41R WCI   2
$$

NOTE: "FAIR" INDICATES FEW OR NO CLOUDS BELOW 12,000 FEET WITH NO
SIGNIFICANT WEATHER AND/OR OBSTRUCTIONS TO VISIBILITY. WIND
SPEEDS ARE IN MILES-PER-HOUR.



USA.gov is the U.S. government's official web portal to all federal, state and local government web resources and services.